Home > Weather > Ballia > Past weeks

Flag for India Past Weather in Ballia, Uttar Pradesh, India — Yesterday and Last 2 Weeks

Now
91 °F

Scattered clouds.


Feels Like: 103 °F
Forecast: 80 / 103 °F
Wind: 9 mph from East

Location: Patna Airport

Current Time: May 28, 2016 at 1:37:45 PM

Latest Report: May 28, 2016 at 1:00 PM


Visibility: 3 mi

Pressure: 29.56 "Hg

Humidity: 59%

Dew Point: 75 °F

Location of BalliaLocation

Past Weather in Ballia — Graph

°F

Ballia Temperature Yesterday

Maximum temperature yesterday: 97 °F (at 1:30 PM)
Minimum temperature yesterday: 82 °F (at 5:30 AM)
Average temperature yesterday: 91 °F

High & Low Weather Summary for the Past Weeks

 TemperatureHumidityPressure
High108 °F (May 17, 1:00 PM)100% (May 14, 7:30 AM)29.74 "Hg (May 14, 7:30 AM)
Low72 °F (May 21, 8:30 AM)32% (May 17, 1:00 PM)29.39 "Hg (May 17, 4:00 PM)
Average89 °F63%29.54 "Hg
* Reported May 13 11:30 AM — May 28 12:00 PM, Ballia, Weather by CustomWeather, © 2016

Note: Actual official high and low records may vary slightly from our data, if they occured in-between our weather recording intervals... More about our weather records

Advertising

Ballia Weather History for the Previous 24 Hours

Scroll right to see more
 ConditionsComfort  
Time TempWeatherWind HumidityBarometerVisibility
12:00 PM
Sat, May 28
90 °FScattered clouds.9 mph63%29.59 "Hg3 mi
11:30 AM90 °FScattered clouds.9 mph63%29.59 "Hg3 mi
11:00 AM90 °FScattered clouds.9 mph63%29.62 "Hg3 mi
10:30 AM88 °FScattered clouds.8 mph66%29.62 "Hg3 mi
10:00 AM86 °FScattered clouds.9 mph70%29.62 "Hg3 mi
9:30 AM84 °FScattered clouds.9 mph74%29.62 "Hg3 mi
9:00 AM82 °FScattered clouds.9 mph79%29.62 "Hg2 mi
8:30 AM82 °FScattered clouds.8 mph79%29.62 "Hg2 mi
8:00 AM81 °FScattered clouds.7 mph84%29.62 "Hg2 mi
7:30 AM79 °FScattered clouds.5 mph89%29.65 "Hg2 mi
7:00 AM79 °FScattered clouds.5 mph89%29.65 "Hg1 mi
6:30 AM77 °FScattered clouds.3 mph94%29.65 "Hg1 mi
5:30 AM75 °FScattered clouds.5 mph94%29.62 "Hg1 mi
9:00 PM
Fri, May 27
86 °FPassing clouds.9 mph66%29.56 "Hg2 mi
8:30 PM86 °FPassing clouds.9 mph66%29.56 "Hg2 mi
7:30 PM88 °FPassing clouds.7 mph62%29.53 "Hg2 mi
7:00 PM88 °FScattered clouds.9 mph62%29.53 "Hg2 mi
6:30 PM90 °FHaze.9 mph59%29.53 "Hg3 mi
6:00 PM91 °FHaze.12 mph56%29.50 "Hg3 mi
5:30 PM91 °FHaze.12 mph56%29.50 "Hg3 mi
5:00 PM95 °FHaze.12 mph60%29.50 "Hg3 mi
4:30 PM95 °FHaze.14 mph60%29.47 "Hg3 mi
4:00 PM97 °FHaze.14 mph53%29.47 "Hg3 mi
3:30 PM97 °FHaze.14 mph53%29.50 "Hg3 mi
3:00 PM97 °FHaze.14 mph53%29.50 "Hg3 mi
2:30 PM97 °FHaze.12 mph53%29.50 "Hg3 mi
2:00 PM97 °FHaze.12 mph53%29.53 "Hg3 mi
1:30 PM97 °FHaze.9 mph53%29.53 "Hg3 mi
1:00 PM95 °FScattered clouds.12 mph53%29.53 "Hg3 mi
Weather by CustomWeather, © 2016

See weather overviewHow to use our weather pages